This is the latest recevied weather packets stored in our database for station/object WX7FGZ-6. If no packets are shown the sender has not sent any weather packets the latest 10 day(s).
| Time | Temp. | Humidity | Pressure | Rain* | Wind** | Luminosity | Snow |
|---|---|---|---|---|---|---|---|
| 1777515194 | 3.33° C | 31% | 1019.9 hPa | 0 mm | - | - | - |
| 1777515143 | 2.78° C | 30% | 1019.8 hPa | 0 mm | - | - | - |
| 1777514843 | 3.33° C | 31% | 1019.9 hPa | 0 mm | - | - | - |
| 1777514543 | 3.33° C | 30% | 1019.8 hPa | 0 mm | - | - | - |
| 1777514243 | 3.89° C | 32% | 1019.7 hPa | 0 mm | - | - | - |
| 1777513943 | 3.89° C | 31% | 1019.8 hPa | 0 mm | - | - | - |
| 1777513643 | 3.89° C | 30% | 1019.7 hPa | 0 mm | - | - | - |
| 1777513343 | 4.44° C | 31% | 1019.7 hPa | 0 mm | - | - | - |
| 1777513042 | 3.89° C | 31% | 1019.7 hPa | 0 mm | - | - | - |
| 1777512743 | 3.89° C | 30% | 1019.6 hPa | 0 mm | - | - | - |
| 1777512443 | 3.89° C | 30% | 1019.7 hPa | 0 mm | - | - | - |
| 1777512143 | 3.89° C | 29% | 1019.6 hPa | 0 mm | - | - | - |
| 1777511842 | 4.44° C | 29% | 1019.6 hPa | 0 mm | - | - | - |
| 1777511543 | 4.44° C | 28% | 1019.7 hPa | 0 mm | - | - | - |
| 1777511243 | 4.44° C | 28% | 1019.9 hPa | 0 mm | - | - | - |
| 1777510943 | 4.44° C | 27% | 1019.7 hPa | 0 mm | - | - | - |
| 1777510643 | 4.44° C | 27% | 1019.5 hPa | 0 mm | - | - | - |
| 1777510343 | 5° C | 26% | 1019.8 hPa | 0 mm | - | - | - |
| 1777510043 | 5° C | 27% | 1019.8 hPa | 0 mm | - | - | - |
| 1777509743 | 5.56° C | 27% | 1019.8 hPa | 0 mm | - | - | - |
| 1777509443 | 5.56° C | 27% | 1020 hPa | 0 mm | - | - | - |
| 1777509143 | 5.56° C | 26% | 1019.9 hPa | 0 mm | - | - | - |
| 1777508843 | 5.56° C | 25% | 1019.8 hPa | 0 mm | - | - | - |
| 1777508543 | 5.56° C | 26% | 1020.2 hPa | 0 mm | - | - | - |
| 1777508243 | 6.11° C | 26% | 1020.2 hPa | 0 mm | - | - | - |
* Rain latest hour (hover to see other rain measurements)
** Current wind speed in m/s (hover to see current wind gust speed)